Location: Arpaise
(41.0333°N, 14.7333°E)
Time: 01:35:50
(UTC+00:00)

Cosmos 1766 Rocket - Pass Details

Date: 05 July 2020
Orbit: 606 x 632 km, 82.5° (Epoch: 11 August)

Event Time Altitude Azimuth Distance (km) Brightness Sun altitude
Exits shadow 22:44:23 58° 307° (NW) 720 3.9 -26.1°
Drops below altitude 10° 22:48:22 10° 1° (N) 1,993 7.2 -26.2°
Sets 22:50:38 0° 5° (N) 2,908 8.3 -26.2°
